,,PA_Meas_PMT16A,,PR_Meas_QMR101_102,,RH_Meas_QMH101,,SR_Meas_QMS101,,TA_Meas_QMH101,,GenWind,,GenWind,
time,status,PA,status,PR,status,RH,status,SR,status,TA,status,DirAvg,status,SpdAvg,
2011-09-12, 00:00:05,VALID,917.38,VALID,0,VALID,94.942,VALID,0,VALID,19.4673,VALID,74,VALID,0,
2011-09-12, 00:01:05,VALID,917.419,VALID,0,VALID,94.9878,VALID,0,VALID,19.4883,VALID,74,VALID,0,
2011-09-12, 00:02:05,VALID,917.435,VALID,0,VALID,95.0411,VALID,0,VALID,19.4688,VALID,74,VALID,0,
2011-09-12, 00:03:05,VALID,917.437,VALID,0,VALID,95.1174,VALID,0.107441,VALID,19.4688,VALID,74,VALID,0,
2011-09-12, 00:04:05,VALID,917.44,VALID,0,VALID,95.1021,VALID,0,VALID,19.4298,VALID,74,VALID,0,
2011-09-12, 00:05:05,VALID,917.441,VALID,0,VALID,95.1326,VALID,0,VALID,19.4103,VALID,74,VALID,0,
2011-09-12, 00:06:05,VALID,917.439,VALID,0,VALID,95.1707,VALID,0,VALID,19.3908,VALID,74,VALID,0.283984,
2011-09-12, 00:07:05,VALID,917.427,VALID,0,VALID,95.2165,VALID,0,VALID,19.3713,VALID,74,VALID,0.434766,
2011-09-12, 00:08:05,VALID,917.42,VALID,0,VALID,95.2622,VALID,0,VALID,19.3518,VALID,74,VALID,0.467187,
2011-09-12, 00:09:05,VALID,917.386,VALID,0,VALID,95.2622,VALID,0,VALID,19.3518,VALID,74,VALID,0.595312,
2011-09-12, 00:10:05,VALID,917.375,VALID,0,VALID,95.2165,VALID,0,VALID,19.4118,VALID,74,VALID,0.810156,
2011-09-12, 00:11:05,VALID,917.356,VALID,0,VALID,95.0792,VALID,0,VALID,19.4103,VALID,74,VALID,0.837109,
2011-09-12, 00:12:05,VALID,917.336,VALID,0,VALID,94.6218,VALID,0,VALID,19.4493,VALID,74,VALID,0.832422,
2011-09-12, 00:13:05,VALID,917.321,VALID,0,VALID,93.9662,VALID,0,VALID,19.5468,VALID,74,VALID,0.789453,
2011-09-12, 00:14:05,VALID,917.327,VALID,0,VALID,93.6155,VALID,0,VALID,19.5633,VALID,74,VALID,0.644922,
2011-09-12, 00:15:05,VALID,917.328,VALID,0,VALID,93.4402,VALID,0,VALID,19.5858,VALID,74,VALID,0.801172,
2011-09-12, 00:16:05,VALID,917.345,VALID,0,VALID,93.1734,VALID,0,VALID,19.5663,VALID,74,VALID,0.675391,
2011-09-12, 00:17:05,VALID,917.344,VALID,0,VALID,93.2725,VALID,0,VALID,19.5438,VALID,73,VALID,0.679688,
2011-09-12, 00:18:05,VALID,917.336,VALID,0,VALID,93.3259,VALID,0,VALID,19.4868,VALID,74,VALID,0.912109,
2011-09-12, 00:19:05,VALID,917.332,VALID,0,VALID,93.364,VALID,0,VALID,19.4688,VALID,74,VALID,1.06484,
2011-09-12, 00:20:05,VALID,917.331,VALID,0,VALID,93.4402,VALID,0,VALID,19.4298,VALID,73,VALID,0.896094,
2011-09-12, 00:21:05,VALID,917.331,VALID,0,VALID,93.3487,VALID,0,VALID,19.4298,VALID,74,VALID,0.987891,
2011-09-12, 00:22:05,VALID,917.305,VALID,0,VALID,93.303,VALID,0,VALID,19.4103,VALID,74,VALID,1.04297,
2011-09-12, 00:23:05,VALID,917.26,VALID,0,VALID,93.1963,VALID,0,VALID,19.4103,VALID,74,VALID,0.977344,
2011-09-12, 00:24:05,VALID,917.293,VALID,0,VALID,93.0972,VALID,0,VALID,19.4298,VALID,75,VALID,0.869922,
2011-09-12, 00:25:05,VALID,917.272,VALID,0,VALID,93.0438,VALID,0,VALID,19.4298,VALID,74,VALID,0.706641,
2011-09-12, 00:26:05,VALID,917.281,VALID,0,VALID,92.8989,VALID,0,VALID,19.4703,VALID,74,VALID,0.601172,
2011-09-12, 00:27:05,VALID,917.244,VALID,0,VALID,92.8685,VALID,0,VALID,19.4883,VALID,74,VALID,0.254297,
2011-09-12, 00:28:05,VALID,917.267,VALID,0,VALID,92.9828,VALID,0,VALID,19.5078,VALID,74,VALID,0,
2011-09-12, 00:29:05,VALID,917.278,VALID,0,VALID,93.1353,VALID,0,VALID,19.5273,VALID,74,VALID,0,
2011-09-12, 00:30:05,VALID,917.235,VALID,0,VALID,93.2877,VALID,0,VALID,19.5078,VALID,74,VALID,0.231641,
2011-09-12, 00:31:05,VALID,917.267,VALID,0,VALID,93.4783,VALID,0,VALID,19.5078,VALID,74,VALID,0.669922,
2011-09-12, 00:32:05,VALID,917.231,VALID,0,VALID,93.7985,VALID,0,VALID,19.4688,VALID,119,VALID,0.721094,
2011-09-12, 00:33:05,VALID,917.231,VALID,0,VALID,94.0501,VALID,0,VALID,19.4298,VALID,119,VALID,0.748828,
2011-09-12, 00:34:05,VALID,917.211,VALID,0,VALID,94.233,VALID,0,VALID,19.4103,VALID,119,VALID,0.608203,
2011-09-12, 00:35:05,VALID,917.198,VALID,0,VALID,94.3855,VALID,0,VALID,19.3713,VALID,119,VALID,0.432031,
2011-09-12, 00:36:05,VALID,917.156,VALID,0,VALID,94.5456,VALID,0,VALID,19.3713,VALID,119,VALID,0.323438,
2011-09-12, 00:37:05,VALID,917.166,VALID,0,VALID,94.6676,VALID,0,VALID,19.3518,VALID,119,VALID,0.285156,
2011-09-12, 00:38:05,VALID,917.161,VALID,0,VALID,94.7896,VALID,0,VALID,19.3518,VALID,119,VALID,0.216406,
2011-09-12, 00:39:05,VALID,917.147,VALID,0,VALID,94.9039,VALID,0,VALID,19.2904,VALID,120,VALID,0.173828,
2011-09-12, 00:40:05,VALID,917.138,VALID,0,VALID,95.0259,VALID,0,VALID,19.3323,VALID,119,VALID,0.210156,
2011-09-12, 00:41:05,VALID,917.126,VALID,0,VALID,95.1021,VALID,0,VALID,19.3952,VALID,119,VALID,0.407422,
2011-09-12, 00:42:05,VALID,917.126,VALID,0,VALID,95.186,VALID,0,VALID,19.2514,VALID,119,VALID,0.139062,
2011-09-12, 00:43:05,VALID,917.104,VALID,0,VALID,95.2775,VALID,0,VALID,19.2528,VALID,119,VALID,0.360156,
2011-09-12, 00:44:05,VALID,917.121,VALID,0,VALID,95.3689,VALID,0,VALID,19.2543,VALID,119,VALID,0.363672,
2011-09-12, 00:45:05,VALID,917.105,VALID,0,VALID,95.4147,VALID,0,VALID,19.2543,VALID,119,VALID,0.212891,
2011-09-12, 00:46:05,VALID,917.119,VALID,0,VALID,95.4833,VALID,0,VALID,19.2348,VALID,119,VALID,0.191406,
2011-09-12, 00:47:05,VALID,917.104,VALID,0,VALID,95.529,VALID,0,VALID,19.2139,VALID,119,VALID,0.408984,
2011-09-12, 00:48:05,VALID,917.056,VALID,0,VALID,95.5748,VALID,0,VALID,19.1749,VALID,119,VALID,0.519141,
2011-09-12, 00:49:05,VALID,917.054,VALID,0,VALID,95.6434,VALID,0,VALID,19.1763,VALID,119,VALID,0.325,
2011-09-12, 00:50:05,VALID,917.066,VALID,0,VALID,95.7272,VALID,0,VALID,19.1778,VALID,119,VALID,0.429688,
2011-09-12, 00:51:05,VALID,917.062,VALID,0,VALID,95.7654,VALID,0,VALID,19.1178,VALID,119,VALID,0.525391,
2011-09-12, 00:52:05,VALID,917.084,VALID,0,VALID,95.8416,VALID,0,VALID,19.1193,VALID,119,VALID,0.380078,
2011-09-12, 00:53:05,VALID,917.066,VALID,0,VALID,95.9102,VALID,0,VALID,19.1193,VALID,119,VALID,0.261328,
2011-09-12, 00:54:05,VALID,917.072,VALID,0,VALID,95.9636,VALID,0,VALID,19.0983,VALID,119,VALID,0.385547,
2011-09-12, 00:55:04,VALID,917.102,VALID,0,VALID,95.9941,VALID,0,VALID,19.0384,VALID,119,VALID,0.599219,
2011-09-12, 00:56:04,VALID,917.093,VALID,0,VALID,96.0245,VALID,0,VALID,19.0398,VALID,119,VALID,0.611328,
2011-09-12, 00:57:04,VALID,917.1,VALID,0,VALID,96.0932,VALID,0,VALID,19.0398,VALID,119,VALID,0.809766,
2011-09-12, 00:58:04,VALID,917.092,VALID,0,VALID,96.1618,VALID,0,VALID,19.0413,VALID,119,VALID,0.708203,
2011-09-12, 00:59:04,VALID,917.081,VALID,0,VALID,96.2075,VALID,0,VALID,19.0008,VALID,119,VALID,0.589453,
2011-09-12, 01:00:04,VALID,917.071,VALID,0,VALID,96.2151,VALID,0.107441,VALID,18.9799,VALID,119,VALID,0.826563,
2011-09-12, 01:01:04,VALID,917.061,VALID,0,VALID,96.2228,VALID,0,VALID,19.0008,VALID,119,VALID,0.690625,
2011-09-12, 01:02:04,VALID,917.09,VALID,0,VALID,96.1923,VALID,0,VALID,19.0008,VALID,119,VALID,0.693359,
2011-09-12, 01:03:04,VALID,917.074,VALID,0,VALID,96.1389,VALID,0,VALID,19.0203,VALID,118,VALID,0.603906,
2011-09-12, 01:04:04,VALID,917.042,VALID,0,VALID,96.0703,VALID,0,VALID,19.0803,VALID,119,VALID,0.536719,
2011-09-12, 01:05:04,VALID,917.033,VALID,0,VALID,96.0169,VALID,0,VALID,19.0593,VALID,119,VALID,0.692578,
2011-09-12, 01:06:04,VALID,917.055,VALID,0,VALID,95.9407,VALID,0,VALID,19.0788,VALID,119,VALID,0.447266,
2011-09-12, 01:07:04,VALID,917.026,VALID,0,VALID,95.8797,VALID,0,VALID,19.0774,VALID,119,VALID,0.383984,
2011-09-12, 01:08:04,VALID,917.026,VALID,0,VALID,95.8263,VALID,0,VALID,19.0983,VALID,119,VALID,0.380859,
2011-09-12, 01:09:04,VALID,917.005,VALID,0,VALID,95.773,VALID,0,VALID,19.0983,VALID,119,VALID,0.222266,
2011-09-12, 01:10:04,VALID,917.005,VALID,0,VALID,95.7349,VALID,0,VALID,19.1164,VALID,119,VALID,0.158594,
2011-09-12, 01:11:04,VALID,916.975,VALID,0,VALID,95.7044,VALID,0,VALID,19.1568,VALID,118,VALID,0,
2011-09-12, 01:12:04,VALID,916.985,VALID,0,VALID,95.6739,VALID,0,VALID,19.1373,VALID,118,VALID,0,
2011-09-12, 01:13:04,VALID,916.977,VALID,0,VALID,95.6586,VALID,0,VALID,19.1568,VALID,119,VALID,0,
2011-09-12, 01:14:04,VALID,916.983,VALID,0,VALID,95.6053,VALID,0,VALID,19.1568,VALID,118,VALID,0,
2011-09-12, 01:15:04,VALID,916.971,VALID,0,VALID,95.5748,VALID,0,VALID,19.1373,VALID,118,VALID,0,
2011-09-12, 01:16:04,VALID,916.959,VALID,0,VALID,95.4985,VALID,0,VALID,19.1583,VALID,118,VALID,0,
2011-09-12, 01:17:04,VALID,916.964,VALID,0,VALID,95.3994,VALID,0,VALID,19.1568,VALID,119,VALID,0,
2011-09-12, 01:18:04,VALID,916.975,VALID,0,VALID,95.3613,VALID,0,VALID,19.1763,VALID,119,VALID,0.190625,
2011-09-12, 01:19:04,VALID,916.958,VALID,0,VALID,95.2775,VALID,0,VALID,19.1763,VALID,119,VALID,0.386328,
2011-09-12, 01:20:04,VALID,916.96,VALID,0,VALID,95.2165,VALID,0,VALID,19.1763,VALID,119,VALID,0.407031,
2011-09-12, 01:21:04,VALID,916.925,VALID,0,VALID,95.1783,VALID,0,VALID,19.2168,VALID,119,VALID,0.553906,
2011-09-12, 01:22:04,VALID,916.911,VALID,0,VALID,95.1402,VALID,0,VALID,19.1958,VALID,119,VALID,0.660547,
2011-09-12, 01:23:04,VALID,916.882,VALID,0,VALID,95.064,VALID,0.107441,VALID,19.2153,VALID,119,VALID,0.760156,
2011-09-12, 01:24:04,VALID,916.902,VALID,0,VALID,94.9268,VALID,0,VALID,19.1944,VALID,119,VALID,0.794531,
2011-09-12, 01:25:04,VALID,916.92,VALID,0,VALID,94.8124,VALID,0,VALID,19.2543,VALID,119,VALID,0.694141,
2011-09-12, 01:26:04,VALID,916.887,VALID,0,VALID,94.6981,VALID,0,VALID,19.2543,VALID,119,VALID,0.515234,
2011-09-12, 01:27:04,VALID,916.891,VALID,0,VALID,94.599,VALID,0,VALID,19.2738,VALID,119,VALID,0.31875,
2011-09-12, 01:28:04,VALID,916.88,VALID,0,VALID,94.5609,VALID,0,VALID,19.2933,VALID,119,VALID,0.475,
2011-09-12, 01:29:04,VALID,916.875,VALID,0,VALID,94.5913,VALID,0,VALID,19.2528,VALID,119,VALID,0.773047,
2011-09-12, 01:30:04,VALID,916.866,VALID,0,VALID,94.6066,VALID,0,VALID,19.2348,VALID,119,VALID,0.669141,
2011-09-12, 01:31:04,VALID,916.852,VALID,0,VALID,94.6676,VALID,0,VALID,19.2153,VALID,119,VALID,0.592578,
2011-09-12, 01:32:04,VALID,916.842,VALID,0,VALID,94.6905,VALID,0,VALID,19.1958,VALID,119,VALID,0.692578,
2011-09-12, 01:33:04,VALID,916.835,VALID,0,VALID,94.7591,VALID,0,VALID,19.1554,VALID,119,VALID,0.844531,
2011-09-12, 01:34:04,VALID,916.851,VALID,0,VALID,94.8505,VALID,0,VALID,19.1359,VALID,118,VALID,0.863672,
2011-09-12, 01:35:04,VALID,916.847,VALID,0,VALID,94.9268,VALID,0,VALID,19.1373,VALID,119,VALID,0.904688,
2011-09-12, 01:36:04,VALID,916.836,VALID,0,VALID,95.064,VALID,0,VALID,19.0983,VALID,119,VALID,0.879687,
2011-09-12, 01:37:04,VALID,916.852,VALID,0,VALID,95.186,VALID,0,VALID,19.0983,VALID,119,VALID,0.635156,
2011-09-12, 01:38:04,VALID,916.855,VALID,0,VALID,95.2851,VALID,0,VALID,19.0998,VALID,118,VALID,0.788281,
2011-09-12, 01:39:04,VALID,916.839,VALID,0,VALID,95.3918,VALID,0,VALID,19.0593,VALID,119,VALID,0.754687,
2011-09-12, 01:40:04,VALID,916.823,VALID,0,VALID,95.4757,VALID,0,VALID,19.0398,VALID,119,VALID,0.932031,
2011-09-12, 01:41:04,VALID,916.799,VALID,0,VALID,95.5671,VALID,0,VALID,19.0008,VALID,119,VALID,0.591797,
2011-09-12, 01:42:04,VALID,916.789,VALID,0,VALID,95.651,VALID,0,VALID,19.0008,VALID,119,VALID,0.575,
2011-09-12, 01:43:04,VALID,916.774,VALID,0,VALID,95.7044,VALID,0,VALID,18.9814,VALID,119,VALID,0.852734,
2011-09-12, 01:44:04,VALID,916.746,VALID,0,VALID,95.7425,VALID,0,VALID,19.0203,VALID,119,VALID,0.500781,
2011-09-12, 01:45:04,VALID,916.74,VALID,0,VALID,95.7501,VALID,0,VALID,18.9814,VALID,119,VALID,0.514844,
2011-09-12, 01:46:04,VALID,916.694,VALID,0,VALID,95.7654,VALID,0,VALID,19.0008,VALID,119,VALID,0.686328,
2011-09-12, 01:47:04,VALID,916.713,VALID,0,VALID,95.773,VALID,0,VALID,19.0008,VALID,119,VALID,0.726953,
2011-09-12, 01:48:04,VALID,916.695,VALID,0,VALID,95.7882,VALID,0,VALID,18.9994,VALID,169,VALID,1.20352,
2011-09-12, 01:49:04,VALID,916.677,VALID,0,VALID,95.7577,VALID,0,VALID,19.0189,VALID,155,VALID,0.773828,
2011-09-12, 01:50:04,VALID,916.652,VALID,0,VALID,95.7501,VALID,0,VALID,19.0593,VALID,155,VALID,0.900781,
2011-09-12, 01:51:04,VALID,916.689,VALID,0,VALID,95.7044,VALID,0,VALID,19.0788,VALID,155,VALID,0.965625,
2011-09-12, 01:52:04,VALID,916.633,VALID,0,VALID,95.6739,VALID,0,VALID,19.0788,VALID,155,VALID,0.574219,
2011-09-12, 01:53:04,VALID,916.651,VALID,0,VALID,95.651,VALID,0.107441,VALID,19.1178,VALID,155,VALID,0.516797,
2011-09-12, 01:54:04,VALID,916.651,VALID,0,VALID,95.6053,VALID,0,VALID,19.0983,VALID,155,VALID,0.385156,
2011-09-12, 01:55:04,VALID,916.642,VALID,0,VALID,95.5671,VALID,0,VALID,19.1178,VALID,155,VALID,0.383984,
2011-09-12, 01:56:04,VALID,916.615,VALID,0,VALID,95.5062,VALID,0,VALID,19.0983,VALID,155,VALID,0.25625,
2011-09-12, 01:57:04,VALID,916.625,VALID,0,VALID,95.4833,VALID,0,VALID,19.0774,VALID,155,VALID,0.457422,
2011-09-12, 01:58:04,VALID,916.619,VALID,0,VALID,95.4985,VALID,0,VALID,19.1178,VALID,155,VALID,0.698047,
2011-09-12, 01:59:04,VALID,916.599,VALID,0,VALID,95.4833,VALID,0,VALID,19.1373,VALID,185,VALID,0.464453,
2011-09-12, 02:00:04,VALID,916.597,VALID,0,VALID,95.468,VALID,0,VALID,19.1178,VALID,185,VALID,0.573047,
2011-09-12, 02:01:04,VALID,916.572,VALID,0,VALID,95.4528,VALID,0,VALID,19.1373,VALID,186,VALID,0.499219,
2011-09-12, 02:02:04,VALID,916.586,VALID,0,VALID,95.4299,VALID,0,VALID,19.1178,VALID,185,VALID,0.253125,
2011-09-12, 02:03:04,VALID,916.615,VALID,0,VALID,95.4223,VALID,0,VALID,19.1373,VALID,185,VALID,0.573828,
2011-09-12, 02:04:04,VALID,916.604,VALID,0,VALID,95.3994,VALID,0,VALID,19.1373,VALID,185,VALID,0.360938,
2011-09-12, 02:05:04,VALID,916.599,VALID,0,VALID,95.4147,VALID,0,VALID,19.1568,VALID,176,VALID,0.603125,
2011-09-12, 02:06:04,VALID,916.585,VALID,0,VALID,95.4299,VALID,0,VALID,19.1373,VALID,163,VALID,0.477734,
2011-09-12, 02:07:04,VALID,916.59,VALID,0,VALID,95.4299,VALID,0,VALID,19.1373,VALID,163,VALID,0.371094,
2011-09-12, 02:08:04,VALID,916.577,VALID,0,VALID,95.4757,VALID,0,VALID,19.1178,VALID,163,VALID,0.385547,
2011-09-12, 02:09:04,VALID,916.572,VALID,0,VALID,95.5062,VALID,0,VALID,19.1178,VALID,163,VALID,0.0375,
2011-09-12, 02:10:04,VALID,916.58,VALID,0,VALID,95.5519,VALID,0,VALID,19.0983,VALID,163,VALID,0,
2011-09-12, 02:11:04,VALID,916.551,VALID,0,VALID,95.5976,VALID,0,VALID,19.0983,VALID,163,VALID,0,
2011-09-12, 02:12:04,VALID,916.559,VALID,0,VALID,95.6357,VALID,0,VALID,19.0983,VALID,163,VALID,0,
2011-09-12, 02:13:04,VALID,916.536,VALID,0,VALID,95.6815,VALID,0,VALID,19.0983,VALID,163,VALID,0.378125,
2011-09-12, 02:14:04,VALID,916.532,VALID,0,VALID,95.7044,VALID,0,VALID,19.0788,VALID,163,VALID,0,
2011-09-12, 02:15:04,VALID,916.533,VALID,0,VALID,95.712,VALID,0,VALID,19.0788,VALID,163,VALID,0.18125,
2011-09-12, 02:16:04,VALID,916.508,VALID,0,VALID,95.7577,VALID,0,VALID,19.0788,VALID,163,VALID,0.359766,
2011-09-12, 02:17:04,VALID,916.511,VALID,0,VALID,95.8263,VALID,0,VALID,19.0788,VALID,163,VALID,0.292188,
2011-09-12, 02:18:04,VALID,916.497,VALID,0,VALID,95.8797,VALID,0,VALID,19.0579,VALID,163,VALID,0.275391,
2011-09-12, 02:19:04,VALID,916.46,VALID,0,VALID,95.9331,VALID,0,VALID,19.0803,VALID,163,VALID,0.61875,
2011-09-12, 02:20:04,VALID,916.441,VALID,0,VALID,96.0245,VALID,0,VALID,19.0788,VALID,163,VALID,0.296484,
2011-09-12, 02:21:04,VALID,916.421,VALID,0,VALID,96.0779,VALID,0,VALID,19.0983,VALID,151,VALID,0.519922,
2011-09-12, 02:22:04,VALID,916.366,VALID,0,VALID,96.1084,VALID,0,VALID,19.1178,VALID,150,VALID,0.430859,
2011-09-12, 02:23:04,VALID,916.359,VALID,0,VALID,96.1313,VALID,0,VALID,19.1178,VALID,150,VALID,0.31875,
2011-09-12, 02:24:04,VALID,916.347,VALID,0,VALID,96.1541,VALID,0,VALID,19.0983,VALID,150,VALID,0.360547,
2011-09-12, 02:25:04,VALID,916.34,VALID,0,VALID,96.1618,VALID,0,VALID,19.1178,VALID,150,VALID,0.120703,
2011-09-12, 02:26:04,VALID,916.353,VALID,0,VALID,96.1313,VALID,0,VALID,19.0983,VALID,150,VALID,0.369141,
2011-09-12, 02:27:04,VALID,916.334,VALID,0,VALID,96.1541,VALID,0,VALID,19.1193,VALID,150,VALID,0.228125,
2011-09-12, 02:28:04,VALID,916.33,VALID,0,VALID,96.1846,VALID,0,VALID,19.0788,VALID,150,VALID,0.41875,
2011-09-12, 02:29:04,VALID,916.326,VALID,0,VALID,96.1465,VALID,0,VALID,19.0998,VALID,150,VALID,0,
2011-09-12, 02:30:04,VALID,916.305,VALID,0,VALID,96.1694,VALID,0,VALID,19.0788,VALID,150,VALID,0,
2011-09-12, 02:31:04,VALID,916.314,VALID,0,VALID,96.2075,VALID,0,VALID,19.0998,VALID,150,VALID,0,
2011-09-12, 02:32:04,VALID,916.306,VALID,0,VALID,96.2151,VALID,0,VALID,19.1178,VALID,150,VALID,0,
2011-09-12, 02:33:04,VALID,916.293,VALID,0,VALID,96.2304,VALID,0,VALID,19.1373,VALID,150,VALID,0,
2011-09-12, 02:34:04,VALID,916.301,VALID,0,VALID,96.2761,VALID,0,VALID,19.1778,VALID,150,VALID,0,
2011-09-12, 02:35:04,VALID,916.278,VALID,0,VALID,96.238,VALID,0,VALID,19.1568,VALID,150,VALID,0,
2011-09-12, 02:36:04,VALID,916.254,VALID,0,VALID,96.2151,VALID,0,VALID,19.1973,VALID,150,VALID,0,
2011-09-12, 02:37:04,VALID,916.235,VALID,0,VALID,96.1999,VALID,0,VALID,19.1958,VALID,150,VALID,0,
2011-09-12, 02:38:04,VALID,916.254,VALID,0,VALID,96.1313,VALID,0,VALID,19.1958,VALID,150,VALID,0,
2011-09-12, 02:39:04,VALID,916.239,VALID,0,VALID,96.0703,VALID,0,VALID,19.1973,VALID,150,VALID,0,
2011-09-12, 02:40:04,VALID,916.226,VALID,0,VALID,96.0322,VALID,0,VALID,19.1778,VALID,150,VALID,0,
2011-09-12, 02:41:04,VALID,916.237,VALID,0,VALID,95.9407,VALID,0,VALID,19.1373,VALID,150,VALID,0,
2011-09-12, 02:42:04,VALID,916.228,VALID,0,VALID,95.834,VALID,0,VALID,19.0983,VALID,150,VALID,0,
2011-09-12, 02:43:04,VALID,916.197,VALID,0,VALID,95.8416,VALID,0,VALID,19.1193,VALID,150,VALID,0,
2011-09-12, 02:44:04,VALID,916.172,VALID,0,VALID,95.8187,VALID,0,VALID,19.0788,VALID,150,VALID,0,
2011-09-12, 02:45:04,VALID,916.206,VALID,0,VALID,95.8111,VALID,0,VALID,19.0593,VALID,150,VALID,0,
2011-09-12, 02:46:04,VALID,916.193,VALID,0,VALID,95.8416,VALID,0,VALID,19.0998,VALID,150,VALID,0.126953,
2011-09-12, 02:47:04,VALID,916.193,VALID,0,VALID,95.895,VALID,0,VALID,19.0788,VALID,150,VALID,0.237109,
2011-09-12, 02:48:04,VALID,916.186,VALID,0,VALID,95.9864,VALID,0,VALID,19.1373,VALID,150,VALID,0.301562,
2011-09-12, 02:49:04,VALID,916.198,VALID,0,VALID,96.0322,VALID,0,VALID,19.1373,VALID,150,VALID,0.217187,
2011-09-12, 02:50:04,VALID,916.218,VALID,0,VALID,96.0855,VALID,0,VALID,19.1568,VALID,150,VALID,0.100391,
2011-09-12, 02:51:04,VALID,916.212,VALID,0,VALID,96.1008,VALID,0,VALID,19.1763,VALID,150,VALID,0.00195313,
2011-09-12, 02:52:04,VALID,916.212,VALID,0,VALID,96.0932,VALID,0,VALID,19.1763,VALID,150,VALID,0,
2011-09-12, 02:53:04,VALID,916.208,VALID,0,VALID,96.0398,VALID,0,VALID,19.1763,VALID,150,VALID,0,
2011-09-12, 02:54:04,VALID,916.223,VALID,0,VALID,95.8568,VALID,0,VALID,19.0983,VALID,150,VALID,0,
2011-09-12, 02:55:04,VALID,916.221,VALID,0,VALID,95.6891,VALID,0,VALID,19.0203,VALID,150,VALID,0,
2011-09-12, 02:56:04,VALID,916.227,VALID,0,VALID,95.6281,VALID,0,VALID,19.0218,VALID,150,VALID,0,
2011-09-12, 02:57:04,VALID,916.21,VALID,0,VALID,95.651,VALID,0,VALID,18.9814,VALID,150,VALID,0,
2011-09-12, 02:58:04,VALID,916.215,VALID,0,VALID,95.7196,VALID,0,VALID,18.9828,VALID,150,VALID,0,
2011-09-12, 02:59:04,VALID,916.2,VALID,0,VALID,95.7196,VALID,0,VALID,18.9424,VALID,150,VALID,0,
2011-09-12, 03:00:04,VALID,916.202,VALID,0,VALID,95.7577,VALID,0,VALID,18.9229,VALID,150,VALID,0,
2011-09-12, 03:01:04,VALID,916.243,VALID,0,VALID,95.712,VALID,0,VALID,18.8644,VALID,150,VALID,0.00351562,
2011-09-12, 03:02:04,VALID,916.265,VALID,0,VALID,95.712,VALID,0,VALID,18.8059,VALID,150,VALID,0.522656,
2011-09-12, 03:03:04,VALID,916.249,VALID,0,VALID,95.7425,VALID,0,VALID,18.7279,VALID,150,VALID,0.500391,
2011-09-12, 03:04:04,VALID,916.292,VALID,0,VALID,95.8721,VALID,0,VALID,18.7084,VALID,150,VALID,0.533203,
2011-09-12, 03:05:04,VALID,916.282,VALID,0,VALID,96.0322,VALID,0,VALID,18.7084,VALID,150,VALID,0.587891,
2011-09-12, 03:06:04,VALID,916.298,VALID,0,VALID,96.1236,VALID,0,VALID,18.6889,VALID,150,VALID,0.627734,
2011-09-12, 03:07:04,VALID,916.268,VALID,0,VALID,96.2456,VALID,0,VALID,18.6889,VALID,150,VALID,0.800781,
2011-09-12, 03:08:04,VALID,916.309,VALID,0,VALID,96.3447,VALID,0,VALID,18.6889,VALID,150,VALID,0.801172,
2011-09-12, 03:09:04,VALID,916.26,VALID,0,VALID,96.4286,VALID,0,VALID,18.6903,VALID,150,VALID,0.705078,
2011-09-12, 03:10:04,VALID,916.267,VALID,0,VALID,96.4743,VALID,0,VALID,18.6889,VALID,150,VALID,0.766797,
2011-09-12, 03:11:04,VALID,916.27,VALID,0,VALID,96.5506,VALID,0,VALID,18.6694,VALID,150,VALID,0.744141,
2011-09-12, 03:12:04,VALID,916.255,VALID,0,VALID,96.6039,VALID,0,VALID,18.7084,VALID,150,VALID,0.743359,
2011-09-12, 03:13:04,VALID,916.252,VALID,0,VALID,96.6954,VALID,0,VALID,18.7084,VALID,150,VALID,0.503125,
2011-09-12, 03:14:04,VALID,916.26,VALID,0,VALID,96.6802,VALID,0,VALID,18.7084,VALID,150,VALID,0.436719,
2011-09-12, 03:15:04,VALID,916.247,VALID,0,VALID,96.7335,VALID,0,VALID,18.7084,VALID,150,VALID,0.395703,
2011-09-12, 03:16:04,VALID,916.253,VALID,0,VALID,96.6878,VALID,0,VALID,18.7293,VALID,150,VALID,0.632031,
2011-09-12, 03:17:04,VALID,916.224,VALID,0,VALID,96.7107,VALID,0,VALID,18.6694,VALID,150,VALID,0.906641,
2011-09-12, 03:18:04,VALID,916.253,VALID,0,VALID,96.7869,VALID,0,VALID,18.7098,VALID,150,VALID,0.957031,
2011-09-12, 03:19:04,VALID,916.235,VALID,0,VALID,96.825,VALID,0,VALID,18.7084,VALID,150,VALID,0.841406,
2011-09-12, 03:20:04,VALID,916.227,VALID,0,VALID,96.7716,VALID,0,VALID,18.6694,VALID,150,VALID,0.729297,
2011-09-12, 03:21:04,VALID,916.201,VALID,0,VALID,96.7793,VALID,0,VALID,18.6889,VALID,150,VALID,0.569141,
2011-09-12, 03:22:04,VALID,916.176,VALID,0,VALID,96.7793,VALID,0,VALID,18.6694,VALID,150,VALID,0.423438,
2011-09-12, 03:23:04,VALID,916.173,VALID,0,VALID,96.7564,VALID,0,VALID,18.6499,VALID,150,VALID,0.361328,
2011-09-12, 03:24:04,VALID,916.134,VALID,0,VALID,96.825,VALID,0,VALID,18.6708,VALID,150,VALID,0.351953,
2011-09-12, 03:25:04,VALID,916.104,VALID,0,VALID,96.9012,VALID,0,VALID,18.6889,VALID,150,VALID,0.636719,
2011-09-12, 03:26:04,VALID,916.135,VALID,0,VALID,96.9165,VALID,0,VALID,18.7084,VALID,150,VALID,0.541016,
2011-09-12, 03:27:04,VALID,916.1,VALID,0,VALID,96.9394,VALID,0,VALID,18.7279,VALID,150,VALID,0.740234,
2011-09-12, 03:28:04,VALID,916.102,VALID,0,VALID,96.8936,VALID,0,VALID,18.7488,VALID,150,VALID,0.79375,
2011-09-12, 03:29:04,VALID,916.124,VALID,0,VALID,96.9851,VALID,0,VALID,18.7279,VALID,150,VALID,0.751172,
2011-09-12, 03:30:04,VALID,916.102,VALID,0,VALID,96.9775,VALID,0,VALID,18.7293,VALID,150,VALID,0.704687,
2011-09-12, 03:31:04,VALID,916.077,VALID,0,VALID,96.9775,VALID,0,VALID,18.7474,VALID,150,VALID,0.750391,
2011-09-12, 03:32:04,VALID,916.093,VALID,0,VALID,97.0156,VALID,0,VALID,18.7683,VALID,150,VALID,0.789844,
2011-09-12, 03:33:04,VALID,916.078,VALID,0,VALID,97.0385,VALID,0,VALID,18.7878,VALID,150,VALID,0.839063,
2011-09-12, 03:34:04,VALID,916.084,VALID,0,VALID,97.008,VALID,0,VALID,18.7683,VALID,150,VALID,0.571875,
2011-09-12, 03:35:04,VALID,916.094,VALID,0,VALID,96.9851,VALID,0,VALID,18.7878,VALID,150,VALID,0.601172,
2011-09-12, 03:36:04,VALID,916.083,VALID,0,VALID,96.9622,VALID,0,VALID,18.7878,VALID,150,VALID,0.547656,
2011-09-12, 03:37:04,VALID,916.077,VALID,0,VALID,96.9851,VALID,0,VALID,18.8268,VALID,150,VALID,0.503125,
2011-09-12, 03:38:04,VALID,916.089,VALID,0,VALID,96.9698,VALID,0,VALID,18.8059,VALID,150,VALID,0.401172,
2011-09-12, 03:39:04,VALID,916.083,VALID,0,VALID,96.9165,VALID,0,VALID,18.8073,VALID,150,VALID,0,
2011-09-12, 03:40:04,VALID,916.03,VALID,0,VALID,96.8936,VALID,0,VALID,18.7878,VALID,150,VALID,0.264453,
2011-09-12, 03:41:04,VALID,916.077,VALID,0,VALID,96.8936,VALID,0,VALID,18.8073,VALID,150,VALID,0,
2011-09-12, 03:42:04,VALID,916.076,VALID,0,VALID,96.9012,VALID,0,VALID,18.7864,VALID,150,VALID,0,
2011-09-12, 03:43:04,VALID,916.071,VALID,0,VALID,96.8555,VALID,0,VALID,18.8073,VALID,150,VALID,0,
2011-09-12, 03:44:04,VALID,916.043,VALID,0,VALID,96.8174,VALID,0,VALID,18.7683,VALID,150,VALID,0,
2011-09-12, 03:45:04,VALID,916.058,VALID,0,VALID,96.7945,VALID,0,VALID,18.7683,VALID,150,VALID,0,
2011-09-12, 03:46:04,VALID,916.072,VALID,0,VALID,96.7411,VALID,0,VALID,18.7683,VALID,150,VALID,0,
2011-09-12, 03:47:04,VALID,916.052,VALID,0,VALID,96.7488,VALID,0,VALID,18.7474,VALID,150,VALID,0,